Home > Time Zones > World Clock > Weather > Japan > Osaka > Past weeks

Flag for Japan Weather past 2 weeks in Osaka, Japan

Now
61 °F

Sunny.


Feels Like: 61 °F
Forecast: 52 / 76 °F
Wind: 5 mph from Northwest

Location: Osaka International Airport

Current Time: May 23, 2015 at 6:42:58 AM

Latest Report: May 23, 2015 at 5:00 AM


Visibility: 10 mi

Pressure: 29.95 "Hg

Humidity: 72%

Dew point: 52 °F

Location of OsakaLocation

Historic Weather in Osaka — Graph

°F

Osaka temperature yesterday

Maximum temperature yesterday: 81 °F (at 3:00 PM)
Minimum temperature yesterday: 57 °F (at 5:00 AM)
Average temperature yesterday: 71 °F

Past Weeks' High & Low Weather Summary

 TemperatureHumidityPressure
High82 °F (May 15, 12:00 PM)100% (May 12, 6:00 PM)30.18 "Hg (May 12, 6:00 PM)
Low50 °F (May 11, 5:00 AM)19% (May 11, 1:00 PM)29.53 "Hg (May 12, 5:00 PM)
Average70 °F59%29.83 "Hg
* Reported May 8 5:00 AM — May 23 5:00 AM, Osaka, Weather by CustomWeather, © 2015

Note: Actual official high and low records may vary slightly from our data, if they occured in-between our weather recording intervals... More about our weather records

Advertising

Osaka weather history for previous 24 hours

 ConditionsComfort  
Time TempWeatherWind HumidityBarometerVisibility
5:00 AM
Sat, May 23
61 °FSunny.5 mph72%29.95 "Hg10 mi
8:00 PM
Fri, May 22
72 °FPassing clouds.7 mph53%29.92 "HgN/A
7:00 PM72 °FPassing clouds.8 mph50%29.92 "HgN/A
6:00 PM75 °FScattered clouds.10 mph34%29.89 "HgN/A
5:00 PM75 °FScattered clouds.9 mph34%29.89 "HgN/A
4:00 PM79 °FPassing clouds.8 mph24%29.92 "HgN/A
3:00 PM81 °FScattered clouds.7 mph26%29.92 "HgN/A
2:00 PM79 °FScattered clouds.10 mph28%29.92 "HgN/A
1:00 PM79 °FPartly sunny.8 mph30%29.95 "HgN/A
12:00 PM77 °FPartly sunny.7 mph30%29.95 "HgN/A
11:00 AM73 °FSunny.2 mph38%29.98 "Hg10 mi
10:00 AM70 °FSunny.2 mph50%30.01 "Hg10 mi
9:00 AM68 °FSunny.2 mph53%30.01 "Hg10 mi
8:00 AM64 °FPassing clouds.3 mph56%30.01 "HgN/A
7:00 AM61 °FSunny.1 mph63%30.01 "Hg10 mi
6:00 AM59 °FSunny.5 mph72%29.98 "Hg10 mi
Weather by CustomWeather, © 2015

See weather overviewHow to use our weather pages